Location: G�ppingen
(48.7089°N, 9.6563°E)
Time: 20:26:47
(UTC+02:00)

LilacSat-2 - Pass Details

Date: 28 March 2019
Orbit: 513 x 536 km, 97.5° (Epoch: 25 April)

Event Time Altitude Azimuth Distance (km) Brightness Sun altitude
Rises 05:02:31 0° 34° (NNE) 2,641 ? -11.5°
Reaches altitude 10° 05:06:12 10° 72° (ENE) 1,744 ? -10.9°
Maximum altitude 05:07:14 11° 88° (E) 1,684 ? -10.7°
Drops below altitude 10° 05:08:16 10° 104° (ESE) 1,740 ? -10.6°
Sets 05:11:55 0° 142° (SE) 2,619 ? -10.0°
